English version Home page |
Updated on May 26, 2021 |
|
軌道要素Epoch 2017 Jan. 7.0 TT = JDT 2457760.5 T 2017 Jan. 18.94333 TT Rudenko q 1.5017447 (2000.0) P Q n 0.01039519 Peri. 110.20229 -0.32789530 -0.94384753 a 20.7928752 Node 357.45707 +0.02695258 +0.03345749 e 0.9277760 Incl. 65.75216 +0.94432951 -0.32868287 P 94.8 From 60 observations 2017 Feb. 6-May 19, mean residual 0".6.
|
光度変化m1 = 17.5 + 5 logΔ + 10.0 log r
|
軌道要素はM.P.E.C. 2020-K117に掲載されたものです。
|